Weather Service Report


206 
ASUS42 KFFC 272203
RWRGA 
WEATHER ROUNDUP FOR GEORGIA
NATIONAL WEATHER SERVICE PEACHTREE CITY GA
500 PM EST FRI FEB 27 2015

NOTE: "FAIR" INDICATES FEW OR NO CLOUDS BELOW 12,000 FEET WITH NO
SIGNIFICANT WEATHER AND/OR OBSTRUCTIONS TO VISIBILITY. 

* = USE WITH CAUTION. THE STATIONS MARKED WITH AN ASTERISK MAY NOT
REPORT WEATHER SUCH AS PRECIPITATION, FOG, OR THUNDER AND ARE NOT 
QUALITY CONTROLLED BY NWS.

THE REMARK "TC" DENOTES TEMPERATURE READING IN DEGREES CELSIUS.

GAZ001>058-272300-
NORTH GEORGIA
  
CITY           SKY/WX    TMP DP  RH WIND       PRES   REMARKS
ATLANTA        MOSUNNY   47  18  31 NW8G17    30.35S                  
ATHENS         SUNNY     53  23  31 VRB6      30.33R                  
CHAMBLEE       SUNNY     45  23  42 N9        30.35S                  
PEACHTREE CITY SUNNY     49  20  31 N13       30.35S                  
ROME           SUNNY     42  20  41 NW8       30.41S                  
WEST ATLANTA   SUNNY     45  18  34 NW8       30.36S                  
GAINESVILLE    SUNNY     48  19  31 W8        30.34S                  
CARTERSVILLE   SUNNY     41  18  39 VRB5      30.41F                  

  
CITY           SKY/WX    TMP DP  RH WIND       PRES   REMARKS
DALTON*        SUNNY     37  23  56 N10G16    30.43S WCI  30          
LAWRENCEVILLE* SUNNY     48  21  34 CALM      30.33S                  
MARIETTA       MOSUNNY   44  19  37 NW8       30.36S                  
KENNESAW*      SUNNY     41  19  42 NW6       30.40S                  
$$

GAZ059>098-102>109-272300-
CENTRAL GEORGIA
  
CITY           SKY/WX    TMP DP  RH WIND       PRES   REMARKS
AUGUSTA-BUSH   SUNNY     57  32  38 N6        30.33R                  
AUGUSTA-DANIEL SUNNY     57  31  37 CALM      30.33R                  
COLUMBUS       SUNNY     56  22  26 N7        30.32S                  
MACON          SUNNY     57  30  35 NE8       30.31S                  
ROBINS AFB     SUNNY     58  29  33 NE6       30.29F                  

  
CITY           SKY/WX    TMP DP  RH WIND       PRES   REMARKS
LAGRANGE*      SUNNY     53  26  35 NE7       30.35R                  
SYLVANIA*      PTSUNNY   53  40  60 E5        30.34S                  
MILLEDGEVILLE* SUNNY     55  34  44 N3        30.33R                  
$$

GAZ099>101-110>166-272300-
SOUTH GEORGIA
  
CITY           SKY/WX    TMP DP  RH WIND       PRES   REMARKS
SAVANNAH       CLOUDY    51  34  52 E6        30.34S                  
VALDOSTA       CLOUDY    52  39  61 NE8       30.29F                  
ALMA           CLOUDY    52  36  54 NE6       30.31S                  
ST SIMONS      CLOUDY    48  36  63 N14       30.33R                  
FT STEWART     CLOUDY    51  35  54 E6        30.31S                  
ALBANY         MOSUNNY   58  33  39 NE8       30.32S                  
HUNTER AFB     CLOUDY    49  36  60 E8        30.32S                  
MOODY AFB      CLOUDY    52  39  61 NE7       30.29S                  
BRUNSWICK      CLOUDY    50  32  50 NE12G17   30.34S                  

  
CITY           SKY/WX    TMP DP  RH WIND       PRES   REMARKS
BAINBRIDGE*    CLOUDY    59  41  51 NE9       30.30S                  
MOULTRIE*      MOSUNNY   52  41  66 NE8       30.30S                  
VIDALIA*       PTSUNNY   54  37  54 E5        30.32S                  
WAYCROSS*      CLOUDY    55  40  56 NE6       30.31S                  
DOUGLAS*       CLOUDY    54  39  58 E8        30.32S                  
$$

Return to Home page


Western Regional Climate Center, wrcc@dri.edu